Notices

What's New in latest Release from April 7th, 2021:

- Updated Glossary, including Speed of Maximum Gust, and Total Hourly Precipitation

- Updated national and regional climate services offices contacts and prices information

- Addition of station inventory lists for 1981-2010, 1971-2000, and 1961-1990 Normals.

If you haven't already, please take our survey and provide feedback about our website: https://eccc.sondage-survey.ca/f/LanguageSelection.aspx?s=442ca660-fcf1-47c0-95a9-59707d6fd709

Hourly Data Report for November 16, 2019

EUREKA CLIMATE
NUNAVUT
Current Station Operator: ECCC - MSC

79°59'21.000" N
85°56'02.000" W
10.00 m
2401199
71613
NEK

Download Data

Hourly Data (November 2019)
Hourly Data Report for November 16, 2019
TIME
LST
Temp Definition
°C
Dew Point Definition
°C
Rel Hum Definition
%
Precip. Amount Definition
mm

Wind Dir Definition
10's deg

Wind Spd Definition
km/h
Visibility Definition
km
Stn Press Definition
kPa
Hmdx Definition


Wind Chill Definition


Weather Definition


00:00 -17.2 -19.8 80 0.0 19 5   99.07   -21 LegendNANA
01:00 -17.0 -19.9 78 0.0 25 16   99.19   -26 LegendNANA
02:00 -16.8 -19.2 82 0.0 26 10   99.32   -23 LegendNANA
03:00 -16.8 -18.5 86 0.0 29 10   99.45   -23 LegendNANA
04:00 -17.4 -19.1 87 0.2 11 12   99.57   -25 LegendNANA
05:00 -16.7 -18.4 86 0.0 15 14   99.66   -25 LegendNANA
06:00 -17.1 -18.7 87 0.0 15 7   99.75   -22 LegendNANA
07:00 -17.5 -19.3 86 0.0 14 13   99.84   -25 LegendNANA
08:00 -17.8 -19.8 84 0.0 11 15   99.91   -26 LegendNANA
09:00 -17.9 -20.0 83 0.0 14 15   99.96   -26 LegendNANA
10:00 -18.3 -20.2 85 0.0 9 5   100.02   -22 LegendNANA
11:00 -18.6 -21.0 82 0.0 12 5   100.12   -23 LegendNANA
12:00 -20.2 -22.4 82 0.0 2 7   100.18   -26 LegendNANA
13:00 -19.3 -21.4 83 0.0 10 7   100.25   -25 LegendNANA
14:00 -20.0 -22.2 82 0.0 10 11   100.34   -28 LegendNANA
15:00 -20.1 -22.5 81 0.0 6 5   100.43   -24 LegendNANA
16:00 -19.8 -22.0 83 0.0 6 6   100.50   -25 LegendNANA
17:00 -20.6 -23.0 81 0.0 8 8   100.55   -27 LegendNANA
18:00 -21.2 -23.5 82 0.0 4 11   100.63   -29 LegendNANA
19:00 -20.3 -22.7 81 0.0 9 10   100.67   -28 LegendNANA
20:00 -22.4 -24.7 81 0.0 3 11   100.71   -31 LegendNANA
21:00 -22.1 -24.1 84 0.0 4 10   100.77   -30 LegendNANA
22:00 -22.7 -25.0 82 0.0 2 4   100.81   -26 LegendNANA
23:00 -24.1 -26.4 81 0.2 3 10   100.85   -32 LegendNANA

Notes on Data Quality.

Legend

  • E = Estimated
  • M = Missing
  • NA = Not Available*
  • [empty] = Indicates an unobserved value
Date modified: